Weather History for Atlantic City, NJ

Change the Weather History Date:

Thursday, June 6, 2013

  Actual Average Record
Temperature  
Mean Temperature 62 °F 68 °F  
Max Temperature 73 °F 78 °F 95 °F (2010)
Min Temperature 50 °F 58 °F 44 °F (1991)
Degree Days  
Heating Degree Days 3 2  
Month to date heating degree days 6 12  
Since 1 June heating degree days 6 12  
Since 1 July heating degree days 4836 4890  
Cooling Degree Days 0 5  
Month to date cooling degree days 31 25  
Year to date cooling degree days 125 89  
Since 1 June cooling degree days 31 25  
Growing Degree Days 12 (Base 50)    
Moisture  
Dew Point 56 °F    
Average Humidity 80    
Maximum Humidity 100    
Minimum Humidity 59    
Precipitation  
Precipitation 0.06 in 0.11 in 1.74 in (2002)
Month to date precipitation 0.87 0.66  
Year to date precipitation 18.43 17.94  
Snow  
Snow 0.00 in 0.00 in 0.00 in (1903)
Month to date snowfall 0.0 0.0  
Since 1 June snowfall 0.0 0.0  
Since 1 July snowfall 14.6 16.5  
Snow Depth 0.00 in    
Sea Level Pressure  
Sea Level Pressure 30.09 in    
Wind  
Wind Speed 9 mph (ESE)    
Max Wind Speed 20 mph    
Max Gust Speed 26 mph    
Visibility 7 miles    
Events Fog , Rain    
T = Trace of Precipitation, MM = Missing Value Source: NWS Daily Summary

Daily Weather History Graph

Daily Weather History Graph

Search for Another Location

Airport:

Trip Planner

Search our weather history database for the weather conditions in past years. The results will help you decide how hot, cold, wet, or windy it might be!

Date:

Astronomy

Jun. 06, 2013 Rise Set
Actual Time 5:31 AM EDT 8:22 PM EDT
Civil Twilight 4:59 AM EDT 8:54 PM EDT
Nautical Twilight 4:19 AM EDT 9:35 PM EDT
Astronomical Twilight 3:32 AM EDT 10:21 PM EDT
Moon 4:10 AM EDT (6/6) 6:42 PM EDT (6/6)
Length of Visible Light 15h 55m
Length of Day
14h 51m
Waning Crescent, 4% of the Moon is Illuminated
Jun 6
Waning Crescent
Jun 8
New
Jun 16
First Quarter
Jun 23
Full
Jun 30
Last Quarter

Hourly Weather History & Observations

Time (EDT) Temp. Dew Point Humidity Pressure Visibility Wind Dir Wind Speed Gust Speed Precip Events Conditions
12:54 AM 60.1 °F 57.0 °F 90% 30.13 in 10.0 mi SE 4.6 mph - N/A   Clear
1:54 AM 57.0 °F 54.0 °F 89% 30.13 in 10.0 mi SE 4.6 mph - N/A   Clear
2:47 AM 55.0 °F 53.1 °F 93% 30.14 in 2.0 mi NNW 4.6 mph - N/A   Partly Cloudy
2:52 AM 53.6 °F 51.8 °F 94% 30.14 in 1.5 mi NW 4.6 mph - N/A   Mostly Cloudy
2:54 AM 53.1 °F 52.0 °F 96% 30.14 in 1.5 mi NW 3.5 mph - N/A   Mostly Cloudy
2:57 AM 53.1 °F 51.1 °F 93% 30.14 in 3.0 mi WNW 3.5 mph - N/A   Mostly Cloudy
3:05 AM 54.0 °F 52.0 °F 93% 30.14 in 10.0 mi Calm Calm - N/A   Clear
3:54 AM 52.0 °F 51.1 °F 97% 30.13 in 0.2 mi Calm Calm - N/A Fog Fog
4:07 AM 51.1 °F 50.0 °F 96% 30.13 in 0.2 mi Calm Calm - N/A Fog Fog
4:17 AM 51.1 °F 48.9 °F 92% 30.13 in 1.0 mi Calm Calm - N/A   Mist
4:22 AM 50.0 °F 48.9 °F 96% 30.13 in 2.0 mi Calm Calm - N/A   Overcast
4:30 AM 50.0 °F 48.9 °F 96% 30.13 in 0.2 mi Calm Calm - N/A   Overcast
4:54 AM 50.0 °F 48.9 °F 96% 30.13 in 0.2 mi Calm Calm - N/A Fog Fog
5:06 AM 51.1 °F 50.0 °F 96% 30.13 in 0.2 mi Calm Calm - N/A Fog Fog
5:54 AM 52.0 °F 51.1 °F 97% 30.13 in 0.2 mi East 3.5 mph - N/A Fog Fog
6:26 AM 54.0 °F 53.1 °F 97% 30.12 in 0.2 mi Calm Calm - N/A Fog Fog
6:54 AM 57.0 °F 55.0 °F 93% 30.12 in 0.2 mi Calm Calm - N/A Fog Fog
7:14 AM 59.0 °F 57.9 °F 96% 30.12 in 0.2 mi Calm Calm - N/A   Scattered Clouds
7:43 AM 62.1 °F 61.0 °F 96% 30.12 in 10.0 mi ESE 5.8 mph - N/A   Clear
7:54 AM 63.0 °F 60.1 °F 90% 30.12 in 10.0 mi ESE 5.8 mph - N/A   Clear
8:54 AM 68.0 °F 53.1 °F 59% 30.12 in 10.0 mi SE 11.5 mph - N/A   Clear
9:54 AM 70.0 °F 57.0 °F 63% 30.11 in 10.0 mi ESE 9.2 mph - N/A   Clear
10:54 AM 71.1 °F 57.9 °F 63% 30.10 in 10.0 mi East 11.5 mph - N/A   Clear
11:54 AM 71.1 °F 57.0 °F 61% 30.09 in 10.0 mi ESE 16.1 mph - N/A   Clear
12:54 PM 72.0 °F 57.0 °F 59% 30.09 in 10.0 mi ESE 13.8 mph 20.7 mph N/A   Mostly Cloudy
1:54 PM 73.0 °F 59.0 °F 61% 30.06 in 10.0 mi SE 13.8 mph 23.0 mph N/A   Partly Cloudy
2:54 PM 71.1 °F 60.1 °F 68% 30.05 in 10.0 mi SE 17.3 mph 24.2 mph N/A   Mostly Cloudy
3:21 PM 72.0 °F 61.0 °F 68% 30.04 in 10.0 mi SE 13.8 mph - N/A   Mostly Cloudy
3:54 PM 72.0 °F 60.1 °F 66% 30.04 in 10.0 mi SE 13.8 mph 23.0 mph N/A   Mostly Cloudy
4:54 PM 70.0 °F 59.0 °F 68% 30.02 in 10.0 mi SE 15.0 mph 24.2 mph N/A   Partly Cloudy
5:54 PM 68.0 °F 59.0 °F 73% 30.01 in 10.0 mi ESE 9.2 mph - N/A   Overcast
6:54 PM 66.0 °F 57.9 °F 75% 30.01 in 10.0 mi ESE 11.5 mph - N/A   Overcast
7:54 PM 66.0 °F 57.0 °F 73% 30.01 in 10.0 mi ESE 9.2 mph - 0.00 in   Overcast
8:54 PM 64.9 °F 57.0 °F 75% 30.01 in 10.0 mi ESE 8.1 mph - 0.00 in   Overcast
9:54 PM 64.0 °F 60.1 °F 87% 30.01 in 10.0 mi East 6.9 mph - 0.01 in   Overcast
10:12 PM 64.0 °F 60.1 °F 87% 30.01 in 10.0 mi East 9.2 mph - N/A   Overcast
10:54 PM 63.0 °F 60.1 °F 90% 29.99 in 10.0 mi East 6.9 mph - 0.00 in Rain Light Rain
11:54 PM 63.0 °F 60.1 °F 90% 29.98 in 10.0 mi ESE 10.4 mph - 0.01 in Rain Light Rain